[[{"header":{"parameterUnit":"m.s-1","parameterCategory":1,"la1":30.2991,"la2":30.254,"lo1":-89.0895,"lo2":-89.0444,"dy":0.0017,"dx":0.0017,"nx":28,"ny":28,"refTime":"2024-09-01T09:00:00:Z","depth":0,"parameterNumber":2,"parameterNumberName":"U-component_of_WINDS"},"data":[0,0,0,0,0,0,0,0,0,0,0,0,0,0,0,0,0,0,0,0,0,0,0,0,0,0,0,0,0,0,0,0,0,0,0,0,0,0,0,0,0,0,0,0,0,0,0,0,0,0,0,0,0,0,0,0,0,0,-3.2838,-3.2838,0,-3.2811,-3.281,-3.281,-3.2674,-3.267,-3.2667,-3.2664,-3.264,-3.2642,-3.2644,0,0,0,0,0,0,0,0,0,0,0,0,0,-3.2774,-3.2776,-3.2838,-3.2838,-3.2837,-3.2811,-3.281,-3.281,-3.2674,-3.267,-3.2666,-3.2663,-3.2639,-3.2642,-3.2644,0,0,0,0,0,0,0,0,0,0,0,0,0,-3.278,-3.2777,-3.2838,-3.2766,-3.2759,-3.2811,-3.281,-3.281,-3.2675,-3.267,-3.2665,-3.2661,-3.2638,-3.2641,-3.2645,-3.2764,0,0,-3.2656,-3.2657,0,0,0,0,0,0,0,0,-3.278,-3.2783,-3.2777,-3.2771,-3.2764,-3.274,-3.2779,-3.2795,-3.2676,-3.2707,-3.2664,-3.2658,-3.2677,-3.2677,-3.2683,-3.2763,-3.2762,-3.2656,-3.2658,-3.266,-3.2661,0,0,0,0,0,0,0,-3.278,-3.2783,-3.2827,-3.2777,-3.2769,-3.2736,-3.2731,-3.2781,-3.272,-3.2704,-3.2694,-3.2693,-3.2673,-3.268,-3.2681,-3.2762,-3.2656,-3.2659,-3.2661,-3.2663,-3.2937,-3.2942,0,0,0,0,0,0,-3.2789,-3.2784,-3.2828,-3.2826,-3.276,-3.2741,-3.2736,-3.2753,-3.2719,-3.2709,-3.2697,-3.2686,-3.2676,-3.2677,-3.268,-3.2816,-3.266,-3.2663,-3.2665,-3.2932,-3.2938,-3.2944,0,0,0,0,0,0,-3.2788,-3.2794,-3.2829,-3.2802,-3.2804,-3.2747,-3.2768,-3.2755,-3.2762,-3.2713,-3.2702,-3.2715,-3.2672,-3.2675,-3.2744,-3.2813,-3.2665,-3.2668,-3.2926,-3.2934,-3.2941,-3.3091,0,0,0,0,0,0,-3.2787,-3.2795,-3.2839,-3.2804,-3.2806,-3.2893,-3.2772,-3.2758,-3.2768,-3.2754,-3.2728,-3.2719,-3.2669,-3.2739,-3.2747,-3.2816,-3.2671,-3.2919,-3.2929,-3.2939,-3.3079,-3.3103,-3.3123,0,0,0,0,0,-3.2785,-3.2884,-3.2842,-3.2848,-3.286,-3.2897,-3.2898,-3.2838,-3.2774,-3.2818,-3.2787,-3.272,-3.2805,-3.2747,-3.2755,-3.2826,-3.2915,-3.2927,-3.2938,-3.307,-3.3098,-3.3122,0,0,0,0,0,0,-3.293,-3.2878,-3.2831,-3.2921,-3.2914,-3.2874,-3.2928,-3.287,-3.2883,-3.2869,-3.2795,-3.279,-3.287,-3.2855,-3.2792,-3.2939,-3.2848,-3.2862,-3.2946,-3.2972,-3.2994,-3.2995,-3.2674,0,0,0,0,0,-3.2972,-3.3005,-3.2958,-3.3042,-3.3041,-3.2986,-3.3,-3.2954,-3.2944,-3.2941,-3.2915,-3.2909,-3.2934,-3.2953,-3.2973,-3.3077,-3.3069,-3.3129,-3.3151,-3.3169,-3.3182,-3.3234,-3.326,-3.2982,-3.2982,-3.2982,0,0,-3.3059,-3.3035,-3.3061,-3.3071,-3.306,-3.3097,-3.2984,-3.3028,-3.3055,-3.2948,-3.301,-3.2992,-3.298,-3.3067,-3.3103,-3.3057,-3.3257,-3.3184,-3.3199,-3.3201,-3.3249,-3.3275,-3.3298,-3.299,-3.2988,-3.2987,0,0,-3.3237,-3.3223,-3.329,-3.3281,-3.3266,-3.3229,-3.3245,-3.3214,-3.3196,-3.3258,-3.3178,-3.3209,-3.3255,-3.3249,-3.3253,-3.3429,-3.3366,-3.3438,-3.355,-3.3602,-3.3624,-3.3643,-3.3705,-3.3728,-3.345,-3.3451,-3.3451,0,-3.3348,-3.3399,-3.3332,-3.3381,-3.3387,-3.3291,-3.3358,-3.3354,-3.3348,-3.3354,-3.3302,-3.3356,-3.3342,-3.3425,-3.3468,-3.3474,-3.349,-3.344,-3.3626,-3.3645,-3.3661,-3.3719,-3.3743,-3.3459,-3.3458,-3.3458,-3.3457,0,-3.3536,-3.3573,-3.3629,-3.3623,-3.3636,-3.3694,-3.3636,-3.3658,-3.3611,-3.3579,-3.3643,-3.3622,-3.3637,-3.3653,-3.3609,-3.373,-3.3701,-3.3639,-3.3546,-3.3698,-3.3751,-3.3772,-3.3472,-3.3469,-3.3466,-3.3464,0,0,-3.3803,-3.3759,-3.378,-3.3776,-3.3752,-3.378,-3.3834,-3.3846,-3.3866,-3.3865,-3.3908,-3.3949,-3.389,-3.3894,-3.3848,-3.3894,-3.4033,-3.3826,-3.3824,-3.3864,-3.4165,-3.4211,-3.4237,-3.3993,-3.3996,-3.4,-3.4165,0,-3.3972,-3.406,-3.4001,-3.4099,-3.4131,-3.4041,-3.4088,-3.4079,-3.4051,-3.4075,-3.4044,-3.4073,-3.3995,-3.3997,-3.4038,-3.4008,-3.4092,-3.3995,-3.4032,-3.4034,-3.4036,-3.4265,-3.4314,-3.4471,-3.4186,-3.4189,-3.4192,0,-3.418,-3.4186,-3.4287,-3.4256,-3.4267,-3.431,-3.4316,-3.4341,-3.4329,-3.4306,-3.431,-3.4252,-3.4303,-3.4213,-3.4282,-3.4218,-3.4229,-3.4217,-3.4221,-3.4221,-3.4121,-3.427,-3.452,-3.4543,-3.4224,-3.4221,-3.4219,0,-3.4364,-3.4397,-3.4461,-3.4461,-3.4426,-3.4458,-3.4445,-3.4428,-3.444,-3.4446,-3.4452,-3.4465,-3.4472,-3.4484,-3.4431,-3.4371,-3.4508,-3.4413,-3.4489,-3.4491,-3.4521,-3.452,-3.4775,-3.4532,-3.4532,-3.4531,-3.4531,0,-3.4557,-3.4622,-3.4543,-3.4582,-3.4652,-3.4584,-3.4656,-3.4634,-3.462,-3.4653,-3.4577,-3.4611,-3.454,-3.4567,-3.4526,-3.4589,-3.4594,-3.4576,-3.4564,-3.4582,-3.4584,-3.4588,-3.4575,-3.4537,-3.4536,-3.4535,-3.4534,0,-3.4773,-3.4723,-3.4786,-3.4747,-3.4739,-3.4793,-3.476,-3.4795,-3.4762,-3.4806,-3.4812,-3.4761,-3.4788,-3.4737,-3.4759,-3.4731,-3.4819,-3.4791,-3.4823,-3.4814,-3.4893,-3.4886,-3.5158,-3.519,-3.4928,-3.4931,-3.4933,0,-3.4899,-3.4946,-3.4913,-3.4929,-3.492,-3.4948,-3.4958,-3.4894,-3.4908,-3.4898,-3.4934,-3.4955,-3.4968,-3.5016,-3.4981,-3.4997,-3.4968,-3.5063,-3.497,-3.4986,-3.4968,-3.4965,-3.4969,-3.5081,-3.5085,-3.5087,-3.5089,0,-3.5128,-3.51,-3.5117,-3.5126,-3.514,-3.5144,-3.5143,-3.5161,-3.5093,-3.5113,-3.5139,-3.5149,-3.517,-3.5192,-3.5199,-3.5187,-3.5128,-3.5119,-3.5137,-3.5155,-3.5171,-3.5162,-3.4873,-3.5113,-3.511,-3.5109,-3.5107,-3.5106,-3.5301,-3.5339,-3.532,-3.5342,-3.5334,-3.5334,-3.5365,-3.5335,-3.5355,-3.5366,-3.5327,-3.5362,-3.5349,-3.5352,-3.5347,-3.5374,-3.5332,-3.5359,-3.5365,-3.5372,-3.5384,-3.5168,-3.5375,-3.5374,-3.5374,-3.5373,-3.5373,0,-3.5525,-3.5508,-3.5529,-3.5528,-3.5545,-3.5486,-3.5482,-3.55,-3.5532,-3.5524,-3.5538,-3.5568,-3.5588,-3.5555,-3.557,-3.5598,-3.5571,-3.5604,-3.5601,-3.5599,-3.5422,-3.5404,-3.5626,-3.5626,-3.5626,-3.5626,-3.5626,-3.5626,-3.5643,-3.5702,-3.5673,-3.5728,-3.5711,-3.5743,-3.5745,-3.5746,-3.5739,-3.5775,-3.5791,-3.5769,-3.5751,-3.5764,-3.578,-3.577,-3.5778,-3.5821,-3.5801,-3.5636,-3.5611,-3.5588,-3.557,-3.5824,-3.5824,-3.5976,-3.5977,-3.5978]},{"header":{"parameterUnit":"m.s-1","parameterCategory":1,"la1":30.2991,"la2":30.254,"lo1":-89.0895,"lo2":-89.0444,"dy":0.0017,"dx":0.0017,"nx":28,"ny":28,"refTime":"2024-09-01T09:00:00:Z","depth":0,"parameterNumber":3,"parameterNumberName":"V-component_of_WINDS"},"data":[0,0,0,0,0,0,0,0,0,0,0,0,0,0,0,0,0,0,0,0,0,0,0,0,0,0,0,0,0,0,0,0,0,0,0,0,0,0,0,0,0,0,0,0,0,0,0,0,0,0,0,0,0,0,0,0,0,0,-0.5393,-0.5394,0,-0.5496,-0.5497,-0.5498,-0.5551,-0.5551,-0.5551,-0.5551,-0.5657,-0.566,-0.5663,0,0,0,0,0,0,0,0,0,0,0,0,0,-0.5244,-0.5246,-0.5393,-0.5394,-0.5396,-0.5495,-0.5497,-0.5498,-0.5551,-0.5551,-0.5551,-0.5551,-0.5656,-0.566,-0.5663,0,0,0,0,0,0,0,0,0,0,0,0,0,-0.5324,-0.5247,-0.5393,-0.5434,-0.5438,-0.5495,-0.5497,-0.5499,-0.5551,-0.5551,-0.5551,-0.5551,-0.5655,-0.5659,-0.5663,-0.5688,0,0,-0.5676,-0.5678,0,0,0,0,0,0,0,0,-0.5319,-0.5329,-0.5426,-0.5431,-0.5436,-0.551,-0.5483,-0.5562,-0.555,-0.5508,-0.5551,-0.5551,-0.5608,-0.5616,-0.5636,-0.5693,-0.5697,-0.5677,-0.5679,-0.5681,-0.5682,0,0,0,0,0,0,0,-0.5314,-0.5325,-0.5434,-0.5428,-0.5434,-0.5447,-0.5459,-0.5498,-0.5557,-0.5512,-0.5516,-0.5527,-0.5611,-0.5631,-0.5638,-0.5699,-0.5676,-0.568,-0.5683,-0.5684,-0.578,-0.578,0,0,0,0,0,0,-0.5301,-0.532,-0.543,-0.5437,-0.5377,-0.545,-0.5463,-0.5487,-0.5556,-0.5567,-0.5527,-0.5529,-0.5624,-0.5633,-0.5642,-0.5675,-0.5681,-0.5685,-0.5687,-0.578,-0.578,-0.578,0,0,0,0,0,0,-0.5298,-0.5311,-0.5426,-0.538,-0.5395,-0.5452,-0.5479,-0.5488,-0.5509,-0.5568,-0.5579,-0.5537,-0.5625,-0.5637,-0.5676,-0.568,-0.5687,-0.5691,-0.578,-0.578,-0.578,-0.5741,0,0,0,0,0,0,-0.5293,-0.5309,-0.5319,-0.5379,-0.5398,-0.5458,-0.5479,-0.549,-0.5516,-0.552,-0.558,-0.559,-0.5626,-0.5669,-0.568,-0.5685,-0.5694,-0.578,-0.578,-0.578,-0.5742,-0.5739,-0.5737,0,0,0,0,0,-0.5288,-0.5304,-0.5319,-0.5332,-0.5411,-0.5458,-0.5468,-0.5508,-0.5516,-0.5526,-0.5564,-0.5588,-0.5677,-0.5673,-0.5685,-0.5692,-0.578,-0.578,-0.578,-0.5743,-0.574,-0.5737,0,0,0,0,0,0,-0.5243,-0.5313,-0.533,-0.5366,-0.5405,-0.5466,-0.5481,-0.5504,-0.5542,-0.5545,-0.5593,-0.5606,-0.5641,-0.5671,-0.5664,-0.5719,-0.5731,-0.5734,-0.5698,-0.5696,-0.5694,-0.5686,-0.5697,0,0,0,0,0,-0.5237,-0.5269,-0.5328,-0.5355,-0.5373,-0.5423,-0.5445,-0.5473,-0.5516,-0.5533,-0.5574,-0.5615,-0.5652,-0.5676,-0.5713,-0.5746,-0.576,-0.5757,-0.5755,-0.5752,-0.5754,-0.5773,-0.5773,-0.5781,-0.5781,-0.5781,0,0,-0.5226,-0.5268,-0.5285,-0.5347,-0.538,-0.5412,-0.5437,-0.547,-0.5495,-0.5538,-0.5577,-0.5608,-0.5658,-0.5694,-0.5712,-0.5719,-0.5755,-0.5752,-0.575,-0.5753,-0.5773,-0.5773,-0.5772,-0.5781,-0.5781,-0.5781,0,0,-0.5222,-0.5257,-0.5282,-0.5315,-0.5365,-0.5398,-0.5404,-0.5462,-0.5484,-0.5524,-0.5557,-0.5586,-0.565,-0.5683,-0.5708,-0.5715,-0.5739,-0.5726,-0.5714,-0.5732,-0.5731,-0.5731,-0.5734,-0.5734,-0.5728,-0.5728,-0.5727,0,-0.5202,-0.5251,-0.5293,-0.5324,-0.5349,-0.5389,-0.5415,-0.5445,-0.5505,-0.5522,-0.553,-0.5609,-0.5645,-0.569,-0.5691,-0.571,-0.5719,-0.572,-0.5728,-0.5728,-0.5729,-0.5731,-0.5732,-0.5726,-0.5726,-0.5726,-0.5726,0,-0.5224,-0.5257,-0.5272,-0.5328,-0.5355,-0.5384,-0.5429,-0.5452,-0.5477,-0.5509,-0.5549,-0.5593,-0.564,-0.5652,-0.5677,-0.57,-0.5703,-0.5719,-0.5732,-0.5725,-0.5729,-0.573,-0.5723,-0.5724,-0.5724,-0.5725,0,0,-0.5196,-0.5273,-0.5278,-0.5303,-0.5361,-0.5388,-0.5418,-0.5463,-0.5481,-0.5521,-0.5548,-0.5599,-0.5614,-0.5642,-0.5671,-0.5687,-0.5689,-0.5701,-0.5703,-0.5697,-0.5717,-0.5705,-0.5705,-0.5705,-0.5705,-0.5706,-0.5713,0,-0.52,-0.5255,-0.5292,-0.5333,-0.5364,-0.5401,-0.5427,-0.5466,-0.5496,-0.5527,-0.5561,-0.5597,-0.5614,-0.5631,-0.5648,-0.5685,-0.5694,-0.5685,-0.5731,-0.5732,-0.5717,-0.5707,-0.5695,-0.57,-0.5714,-0.5715,-0.5715,0,-0.5212,-0.525,-0.5293,-0.5346,-0.5361,-0.5383,-0.5427,-0.5457,-0.5501,-0.5522,-0.5553,-0.5582,-0.5615,-0.5625,-0.5671,-0.5664,-0.5685,-0.5706,-0.5707,-0.5713,-0.5723,-0.5713,-0.5702,-0.5703,-0.5717,-0.5717,-0.5717,0,-0.5187,-0.5249,-0.5282,-0.5303,-0.5366,-0.5381,-0.5408,-0.5452,-0.5476,-0.5515,-0.5531,-0.5573,-0.5596,-0.5628,-0.5667,-0.5671,-0.571,-0.5723,-0.5728,-0.5727,-0.5736,-0.5735,-0.5727,-0.5748,-0.5748,-0.5748,-0.5748,0,-0.5188,-0.5213,-0.5272,-0.5292,-0.5321,-0.5364,-0.5391,-0.5422,-0.546,-0.5488,-0.5523,-0.5548,-0.5598,-0.5629,-0.5661,-0.5694,-0.5704,-0.5723,-0.5731,-0.572,-0.5717,-0.5734,-0.5735,-0.5748,-0.5748,-0.5748,-0.5748,0,-0.5165,-0.5205,-0.5245,-0.53,-0.5315,-0.5334,-0.5382,-0.5404,-0.5435,-0.547,-0.548,-0.553,-0.5569,-0.5611,-0.5664,-0.5685,-0.5717,-0.5728,-0.5701,-0.5706,-0.5709,-0.5708,-0.5713,-0.5716,-0.5734,-0.5734,-0.5733,0,-0.5163,-0.5183,-0.5241,-0.5261,-0.5287,-0.532,-0.5344,-0.5387,-0.5411,-0.5462,-0.5477,-0.5518,-0.5553,-0.5613,-0.5654,-0.5695,-0.5708,-0.5706,-0.5714,-0.5702,-0.5708,-0.5706,-0.5708,-0.5704,-0.5704,-0.5703,-0.5703,0,-0.5156,-0.5174,-0.5208,-0.5248,-0.5276,-0.5311,-0.5346,-0.5361,-0.5411,-0.5436,-0.5475,-0.5502,-0.5556,-0.5596,-0.5641,-0.567,-0.5695,-0.57,-0.5704,-0.5693,-0.5676,-0.5685,-0.5695,-0.57,-0.57,-0.5701,-0.5701,-0.5701,-0.5143,-0.5162,-0.5206,-0.5242,-0.5273,-0.5305,-0.5328,-0.5362,-0.5395,-0.5441,-0.5464,-0.5503,-0.5546,-0.5609,-0.5637,-0.5668,-0.5676,-0.5681,-0.5682,-0.5683,-0.568,-0.5671,-0.5676,-0.5677,-0.5677,-0.5677,-0.5677,0,-0.5137,-0.5167,-0.5199,-0.5247,-0.5276,-0.5296,-0.5336,-0.5359,-0.5392,-0.5429,-0.5463,-0.5507,-0.5546,-0.559,-0.5632,-0.5648,-0.5661,-0.5658,-0.5657,-0.5663,-0.567,-0.5663,-0.5647,-0.5647,-0.5647,-0.5647,-0.5647,-0.5647,-0.5138,-0.5171,-0.5194,-0.5243,-0.5272,-0.531,-0.5331,-0.5361,-0.5391,-0.5439,-0.5471,-0.5499,-0.5539,-0.5583,-0.562,-0.5632,-0.5646,-0.5639,-0.5654,-0.566,-0.5663,-0.5665,-0.5659,-0.5642,-0.5642,-0.5645,-0.5645,-0.5645]}]]